Regional Weather Roundup
Issued by NWS

Home | Current Version | Previous Version | Text Only | Print | Product List | Glossary Off
Versions: 1 2 3 4 5 6 7 8 9 10 11 12 13 14 15 16 17 18 19 20 21 22 23 24 25 26 27 28 29 30 31 32 33 34 35 36 37 38 39 40 41 42 43 44 45 46 47 48 49 50

145
ASUS43 KLMK 281710
RWRKY
KENTUCKY REGIONAL WEATHER ROUNDUP
NATIONAL WEATHER SERVICE LOUISVILLE KY
100 PM EDT WED JUN 28 2017

NOTE "FAIR" INDICATES FEW OR NO CLOUDS BELOW 12,000 FEET
WITH NO SIGNIFICANT WEATHER AND/OR OBSTRUCTIONS TO VISIBILITY.

KYZ001>023-026-027-061>063-070>075-281800-
WESTERN AND SOUTH CENTRAL KENTUCKY

CITY           SKY/WX    TMP DP  RH WIND       PRES   REMARKS
PADUCAH        SUNNY     83  63  50 SW8G17    30.08S
HENDERSON      MOSUNNY   80  60  50 S7        30.10F
OWENSBORO      SUNNY     81  59  47 SW14      30.11F
HOPKINSVILLE   SUNNY     82  56  41 S7        30.12F
BOWLING GREEN  SUNNY     82  53  36 MISG      30.13F
GLASGOW        SUNNY     79  50  36 SW8G18    30.15F
$$

KYZ024-025-028>034-038-045-046-053-281800-
NORTH CENTRAL KENTUCKY

CITY           SKY/WX    TMP DP  RH WIND       PRES   REMARKS
LOUISVILLE/SDF MOSUNNY   82  55  39 SW15      30.13F
LOUISVILLE/LOU SUNNY     80  53  39 S12       30.14F
FORT KNOX      MOSUNNY   79  55  44 W8        30.12F
$$

KYZ035>037-039>044-047>052-055>060-089>105-281800-
NORTHEAST KENTUCKY

CITY           SKY/WX    TMP DP  RH WIND       PRES   REMARKS
LEXINGTON      SUNNY     79  49  34 SW10G17   30.17F
COVINGTON      PTSUNNY   75  55  49 S12       30.16F
FRANKFORT      SUNNY     78  53  41 SW9       30.16S
$$

KYZ054-064>069-076>088-106>120-281800-
SOUTHEAST KENTUCKY

CITY           SKY/WX    TMP DP  RH WIND       PRES   REMARKS
JACKSON        SUNNY     74  52  46 SE6       30.21F
LONDON         SUNNY     77  51  40 SE6       30.19F
SOMERSET       SUNNY     75  50  41 S5        30.18F
MIDDLESBORO    SUNNY     78  55  44 CALM      30.20F
MONTICELLO     SUNNY     78  54  43 NW7G16    30.19F
$$





USA.gov is the U.S. government's official web portal to all federal, state and local government web resources and services.